Location: RyutenAO
(34.8939°N, 134.0022°E)
Time: 09:40:22
(UTC+09:00)

Oscar 19 - Pass Details

Date: 08 April 2023
Orbit: 773 x 788 km, 98.8° (Epoch: 29 May)

Event Time Altitude Azimuth Distance (km) Brightness Sun altitude
Rises 03:07:23 0° 30° (NNE) 3,273 14.8 -30.2°
Reaches altitude 10° 03:10:16 10° 47° (NE) 2,343 14.0 -29.7°
Maximum altitude 03:14:07 21° 95° (E) 1,704 12.9 -29.1°
Drops below altitude 10° 03:17:58 10° 144° (SE) 2,338 13.1 -28.4°
Enters shadow 03:18:46 - 149° (SSE) 2,580 13.3 -28.3°
